Location: ??????
(55.6500°N, 37.8000°E)
Time: 04:05:46
(UTC+00:00)

SAR-Lupe-1 - Pass Details

Date: 14 April 2024
Orbit: 479 x 482 km, 98.1° (Epoch: 04 May)

Event Time Altitude Azimuth Distance (km) Brightness Sun altitude
Rises 00:21:48 0° 15° (NNE) 2,563 8.8 -15.6°
Reaches altitude 10° 00:23:53 10° 16° (NNE) 1,677 7.7 -15.4°
Maximum altitude 00:27:29 89° 97° (E) 491 4.0 -15.1°
Enters shadow 00:29:27 25° 196° (SSW) 1,003 5.2 -14.9°
